{"data":{"norad_id":49196,"epoch":"2026-09-19T22:09:40.805280Z","epoch_age_seconds":71748,"freshness":"FRESH","line1":"1 49196U 21083L   26262.92338895 -.00000033  00000+0 -11544-3 0  9993","line2":"2 49196  87.9156 316.6324 0002345  99.4852 260.6545 13.18686180242506","mean_motion":13.1868618,"eccentricity":0.0002345,"inclination_deg":87.9156,"raan_deg":316.6324,"arg_perigee_deg":99.4852,"mean_anomaly_deg":260.6545,"bstar":-0.00011544,"rev_number":24250,"period_min":109.19959743568,"perigee_km":1187.9677704641,"apogee_km":1191.5171059207,"semimajor_km":7567.8794381924,"source":"CELESTRAK","updated_at":"2026-09-20T09:00:44.662427Z"}}